Voltar ao catálogo

STARLINK-6332

AtivoComunicaçõesVLEO
NORAD 57339·PAYLOAD·🇺🇸 United States

Lançado Jul 16, 2023 de Cape Canaveral Space Force Station

Loading…

Próximas Passagens (próximas 24 horas)

TLE

AtualizadoSource: CelesTrak SupGP

Época: Sep 14, 2026, 22:22 UTC

1 57339C 23099M   26257.93243056  .00025502  00000+0  92390-3 0  2570
2 57339  42.9991 263.7793 0001362 262.3529 226.5127 15.27558302    15

Acompanhe STARLINK-6332 em tempo real com AllMySat

Download on the App Store